Weather History for Chipley, FL

Change the Weather History Date:

Tuesday, January 8, 2013

  Actual Average (KMAI) Record (KMAI)
Temperature  
Mean Temperature 56 °F 50 °F  
Max Temperature 60 °F 61 °F 78 °F (2012)
Min Temperature 53 °F 38 °F 20 °F (2014)
Degree Days  
Heating Degree Days 8    
Month to date heating degree days  
Since 1 July heating degree days  
Cooling Degree Days 0    
Month to date cooling degree days  
Year to date cooling degree days  
Growing Degree Days 6 (Base 50)    
Moisture  
Dew Point 51 °F    
Average Humidity 85    
Maximum Humidity 100    
Minimum Humidity 63    
Precipitation  
Precipitation 0.00 in 0.13 in 0.34 in (2007)
Month to date precipitation 1.35  
Year to date precipitation 1.35  
Sea Level Pressure  
Sea Level Pressure 30.14 in    
Wind  
Wind Speed 7 mph (NE)    
Max Wind Speed 9 mph    
Max Gust Speed 18 mph    
Visibility 6 miles    
Events      
T = Trace of Precipitation, MM = Missing Value Source: NWS Daily Summary

Daily Weather History Graph

Daily Weather History Graph

Search for Another Location

Airport:

Trip Planner

Search our weather history database for the weather conditions in past years. The results will help you decide how hot, cold, wet, or windy it might be!

Date:

Astronomy

Jan. 08, 2013 Rise Set
Actual Time 6:41 AM CST 4:57 PM CST
Civil Twilight 6:14 AM CST 5:23 PM CST
Nautical Twilight 5:44 AM CST 5:53 PM CST
Astronomical Twilight 5:15 AM CST 6:23 PM CST
Moon 3:14 AM CST (1/8) 1:58 PM CST (1/8)
Length of Visible Light 11h 09m
Length of Day
10h 16m
Waning Crescent, 13% of the Moon is Illuminated
Jan 8
Waning Crescent
Jan 11
New
Jan 18
First Quarter
Jan 26
Full
Feb 3
Last Quarter

Hourly Weather History & Observations

Time (CST) Temp. Dew Point Humidity Pressure Visibility Wind Dir Wind Speed Gust Speed Precip Events Conditions
12:15 AM 55.4 °F 42.8 °F 63% 30.19 in 10.0 mi NNE 6.9 mph - N/A   Mostly Cloudy
12:55 AM 53.6 °F 44.6 °F 72% 30.18 in 10.0 mi NE 8.1 mph - N/A   Overcast
1:15 AM 53.6 °F 44.6 °F 72% 30.17 in 10.0 mi NE 8.1 mph - N/A   Overcast
1:35 AM 53.6 °F 44.6 °F 72% 30.17 in 10.0 mi NE 5.8 mph - N/A   Overcast
1:55 AM 53.6 °F 42.8 °F 67% 30.15 in 10.0 mi NE 8.1 mph - N/A   Mostly Cloudy
2:15 AM 53.6 °F 42.8 °F 67% 30.15 in 10.0 mi NE 5.8 mph - N/A   Mostly Cloudy
2:35 AM 53.6 °F 42.8 °F 67% 30.15 in 10.0 mi NE 9.2 mph - N/A   Scattered Clouds
2:55 AM 53.6 °F 42.8 °F 67% 30.14 in 10.0 mi NE 9.2 mph - N/A   Scattered Clouds
3:15 AM 53.6 °F 42.8 °F 67% 30.14 in 10.0 mi NE 9.2 mph - N/A   Partly Cloudy
3:35 AM 53.6 °F 44.6 °F 72% 30.14 in 10.0 mi NE 8.1 mph - N/A   Scattered Clouds
3:55 AM 53.6 °F 44.6 °F 72% 30.14 in 10.0 mi NNE 8.1 mph - N/A   Mostly Cloudy
4:15 AM 53.6 °F 46.4 °F 77% 30.13 in 10.0 mi NE 6.9 mph - N/A   Overcast
4:35 AM 53.6 °F 46.4 °F 77% 30.13 in 10.0 mi NNE 8.1 mph 16.1 mph N/A   Overcast
4:55 AM 53.6 °F 46.4 °F 77% 30.13 in 10.0 mi NE 9.2 mph - N/A   Overcast
5:15 AM 53.6 °F 46.4 °F 77% 30.14 in 10.0 mi NNE 6.9 mph - N/A   Overcast
5:35 AM 53.6 °F 46.4 °F 77% 30.14 in 10.0 mi NE 8.1 mph - N/A   Mostly Cloudy
5:55 AM 53.6 °F 46.4 °F 77% 30.14 in 10.0 mi NE 5.8 mph - N/A   Clear
6:15 AM 53.6 °F 46.4 °F 77% 30.14 in 10.0 mi ENE 8.1 mph - N/A   Clear
6:35 AM 53.6 °F 46.4 °F 77% 30.15 in 10.0 mi NE 6.9 mph - N/A   Clear
6:55 AM 53.6 °F 48.2 °F 82% 30.16 in 10.0 mi NNE 4.6 mph - N/A   Clear
7:15 AM 53.6 °F 48.2 °F 82% 30.16 in 10.0 mi NE 5.8 mph - N/A   Clear
7:35 AM 53.6 °F 48.2 °F 82% 30.16 in 10.0 mi ENE 5.8 mph - N/A   Clear
7:55 AM 53.6 °F 48.2 °F 82% 30.18 in 10.0 mi East 5.8 mph - N/A   Clear
8:15 AM 55.4 °F 48.2 °F 77% 30.18 in 10.0 mi East 6.9 mph - N/A   Mostly Cloudy
8:35 AM 53.6 °F 48.2 °F 82% 30.19 in 10.0 mi NE 5.8 mph - N/A   Scattered Clouds
8:55 AM 55.4 °F 48.2 °F 77% 30.19 in 10.0 mi East 6.9 mph - N/A   Partly Cloudy
9:15 AM 55.4 °F 48.2 °F 77% 30.21 in 10.0 mi East 5.8 mph - N/A   Partly Cloudy
9:35 AM 57.2 °F 50.0 °F 77% 30.21 in 10.0 mi East 6.9 mph - N/A   Partly Cloudy
9:55 AM 57.2 °F 50.0 °F 77% 30.21 in 10.0 mi East 4.6 mph - N/A   Scattered Clouds
10:15 AM 57.2 °F 50.0 °F 77% 30.22 in 10.0 mi ENE 4.6 mph - N/A   Mostly Cloudy
10:35 AM 55.4 °F 51.8 °F 88% 30.21 in 9.0 mi ENE 5.8 mph - N/A   Overcast
10:55 AM 55.4 °F 51.8 °F 88% 30.20 in 7.0 mi NE 6.9 mph - N/A   Overcast
11:15 AM 55.4 °F 51.8 °F 88% 30.19 in 9.0 mi NE 3.5 mph - N/A   Overcast
11:35 AM 55.4 °F 51.8 °F 88% 30.19 in 5.0 mi East 6.9 mph - N/A   Overcast
11:55 AM 55.4 °F 51.8 °F 88% 30.17 in 5.0 mi ENE 3.5 mph - N/A   Overcast
12:15 PM 57.2 °F 51.8 °F 82% 30.16 in 6.0 mi East 3.5 mph - N/A   Overcast
12:35 PM 57.2 °F 53.6 °F 88% 30.14 in 5.0 mi ENE 8.1 mph - N/A   Overcast
12:55 PM 57.2 °F 53.6 °F 88% 30.13 in 7.0 mi East 8.1 mph - N/A   Overcast
1:15 PM 57.2 °F 53.6 °F 88% 30.13 in 4.0 mi East 8.1 mph - N/A   Overcast
1:55 PM 57.2 °F 53.6 °F 88% 30.11 in 5.0 mi ENE 4.6 mph - N/A   Overcast
2:15 PM 57.2 °F 55.4 °F 94% 30.10 in 5.0 mi ENE 5.8 mph 18.4 mph N/A   Overcast
2:35 PM 57.2 °F 53.6 °F 88% 30.10 in 5.0 mi NE 6.9 mph - N/A   Overcast
2:55 PM 57.2 °F 53.6 °F 88% 30.10 in 4.0 mi NE 5.8 mph - N/A   Overcast
3:15 PM 55.4 °F 53.6 °F 94% 30.10 in 3.0 mi NE 5.8 mph - N/A   Overcast
3:35 PM 55.4 °F 55.4 °F 100% 30.10 in 3.0 mi ENE 4.6 mph - N/A   Overcast
3:55 PM 57.2 °F 55.4 °F 94% 30.11 in 2.0 mi ENE 6.9 mph - N/A   Overcast
4:15 PM 55.4 °F 55.4 °F 100% 30.10 in 1.0 mi NE 5.8 mph - N/A   Overcast
4:35 PM 55.4 °F 53.6 °F 94% 30.09 in 0.8 mi NE 5.8 mph - N/A   Overcast
4:55 PM 55.4 °F 53.6 °F 94% 30.10 in 1.0 mi NE 8.1 mph - N/A   Overcast
5:15 PM 55.4 °F 53.6 °F 94% 30.10 in 1.2 mi NE 4.6 mph - N/A   Overcast
5:35 PM 55.4 °F 53.6 °F 94% 30.10 in 0.8 mi NE 6.9 mph - N/A   Overcast
5:55 PM 55.4 °F 53.6 °F 94% 30.10 in 0.8 mi NE 9.2 mph - N/A   Overcast
6:15 PM 55.4 °F 55.4 °F 100% 30.10 in 0.8 mi NE 6.9 mph - N/A   Overcast
6:35 PM 55.4 °F 55.4 °F 100% 30.11 in 0.8 mi ENE 4.6 mph - N/A   Overcast
6:55 PM 55.4 °F 55.4 °F 100% 30.10 in 0.8 mi NNE 8.1 mph - N/A   Overcast
7:15 PM 55.4 °F 55.4 °F 100% 30.10 in 0.8 mi NE 5.8 mph 17.3 mph N/A   Overcast
7:55 PM 55.4 °F 55.4 °F 100% 30.11 in 0.8 mi NE 5.8 mph - N/A   Overcast
8:15 PM 55.4 °F 55.4 °F 100% 30.11 in 0.8 mi NE 5.8 mph - N/A   Overcast
8:35 PM 57.2 °F 55.4 °F 94% 30.11 in 1.5 mi ENE 5.8 mph 16.1 mph N/A   Overcast
8:55 PM 57.2 °F 55.4 °F 94% 30.12 in 6.0 mi NE 5.8 mph - N/A   Overcast
9:15 PM 57.2 °F 55.4 °F 94% 30.12 in 8.0 mi NNE 5.8 mph - N/A   Overcast
9:35 PM 57.2 °F 57.2 °F 100% 30.12 in 2.0 mi NE 5.8 mph 17.3 mph N/A   Overcast
9:55 PM 57.2 °F 55.4 °F 94% 30.13 in 4.0 mi NNE 8.1 mph - N/A   Overcast
10:15 PM 57.2 °F 55.4 °F 94% 30.14 in 1.8 mi NE 4.6 mph - N/A   Overcast
10:35 PM 57.2 °F 57.2 °F 100% 30.13 in 1.5 mi NE 3.5 mph - N/A   Overcast
11:15 PM 60.8 °F 59.0 °F 94% 30.14 in 3.0 mi ENE 5.8 mph - N/A   Overcast
11:55 PM 59.0 °F 57.2 °F 94% 30.13 in 3.0 mi ENE 5.8 mph - N/A   Overcast